Weather History for Elmendorf AFB, AK

Change the Weather History Date:

Tuesday, October 22, 2013

  Actual Average Record
Temperature  
Mean Temperature 40 °F -  
Max Temperature 46 °F 36 °F 52 °F (1957)
Min Temperature 34 °F 24 °F -2 °F (1996)
Degree Days  
Heating Degree Days 25    
Moisture  
Dew Point 35 °F    
Average Humidity 89    
Maximum Humidity 100    
Minimum Humidity 63    
Precipitation  
Precipitation 0.00 in - - ()
Sea Level Pressure  
Sea Level Pressure 30.10 in    
Wind  
Wind Speed 4 mph (NE)    
Max Wind Speed 12 mph    
Max Gust Speed -    
Visibility 8 miles    
Events Fog , Rain    
Averages and records for this station are not official NWS values.
T = Trace of Precipitation, MM = Missing Value Source: NWS Daily Summary

Daily Weather History Graph

Daily Weather History Graph

Search for Another Location

Airport:

Trip Planner

Search our weather history database for the weather conditions in past years. The results will help you decide how hot, cold, wet, or windy it might be!

Date:

Astronomy

Oct. 22, 2013 Rise Set
Actual Time 9:01 AM AKDT 6:24 PM AKDT
Civil Twilight 8:16 AM AKDT 7:09 PM AKDT
Nautical Twilight 7:25 AM AKDT 8:00 PM AKDT
Astronomical Twilight 6:35 AM AKDT 8:50 PM AKDT
Moon 8:23 PM AKDT (10/22) 1:27 PM AKDT (10/22)
Length of Visible Light 10h 53m
Length of Day
9h 23m
Waning Gibbous, 86% of the Moon is Illuminated
Oct 22
Waning Gibbous
Oct 26
Last Quarter
Nov 3
New
Nov 9
First Quarter
Nov 17
Full

Hourly Weather History & Observations

Time (AKDT) Temp. Windchill Dew Point Humidity Pressure Visibility Wind Dir Wind Speed Gust Speed Precip Events Conditions
12:35 AM 39.2 °F 37.0 °F 35.6 °F 87% 30.04 in 10.0 mi North 3.5 mph - N/A   Mostly Cloudy
12:58 AM 39.9 °F 35.8 °F 36.0 °F 86% 30.04 in 10.0 mi NW 5.8 mph - 0.00 in Rain Light Rain
1:08 AM 39.2 °F - 35.6 °F 87% 30.05 in 10.0 mi Calm Calm - N/A Rain Light Rain
1:13 AM 39.2 °F - 37.4 °F 93% 30.05 in 10.0 mi Calm Calm - N/A Rain Light Rain
1:24 AM 39.2 °F - 35.6 °F 87% 30.05 in 10.0 mi Calm Calm - N/A   Mostly Cloudy
1:58 AM 38.7 °F - 36.5 °F 92% 30.04 in 10.0 mi Calm Calm - 0.00 in   Mostly Cloudy
2:58 AM 37.0 °F - 35.1 °F 93% 30.06 in 10.0 mi Calm Calm - N/A   Overcast
3:58 AM 36.0 °F - 34.9 °F 96% 30.08 in 10.0 mi Calm Calm - N/A   Overcast
4:32 AM 37.4 °F - 35.6 °F 93% 30.10 in 10.0 mi Calm Calm - N/A Rain Light Rain
4:45 AM 37.4 °F - 35.6 °F 93% 30.11 in 10.0 mi Calm Calm - N/A   Overcast
4:58 AM 36.9 °F - 36.0 °F 97% 30.10 in 10.0 mi Calm Calm - 0.00 in   Overcast
5:03 AM 37.4 °F - 35.6 °F 93% 30.11 in 10.0 mi Calm Calm - N/A Rain Light Rain
5:21 AM 37.4 °F 33.8 °F 35.6 °F 93% 30.11 in 10.0 mi SSE 4.6 mph - N/A   Mostly Cloudy
5:58 AM 36.5 °F 31.8 °F 36.0 °F 98% 30.12 in 10.0 mi ESE 5.8 mph - 0.00 in   Overcast
6:58 AM 35.2 °F 30.3 °F 33.6 °F 94% 30.12 in 10.0 mi East 5.8 mph - N/A   Mostly Cloudy
7:58 AM 36.5 °F 31.8 °F 34.5 °F 93% 30.13 in 10.0 mi ENE 5.8 mph - N/A   Overcast
8:58 AM 39.0 °F 35.7 °F 34.2 °F 83% 30.15 in 10.0 mi NE 4.6 mph - N/A   Overcast
9:58 AM 38.8 °F 36.5 °F 36.3 °F 91% 30.16 in 10.0 mi NW 3.5 mph - N/A   Overcast
10:58 AM 40.1 °F 36.1 °F 38.1 °F 93% 30.17 in 10.0 mi WSW 5.8 mph - N/A   Overcast
11:58 AM 40.3 °F - 37.2 °F 89% 30.18 in 10.0 mi Calm Calm - N/A   Overcast
12:58 PM 42.1 °F - 36.7 °F 81% 30.18 in 10.0 mi Calm Calm - N/A   Overcast
1:58 PM 44.1 °F 40.1 °F 34.9 °F 70% 30.19 in 10.0 mi ESE 6.9 mph - N/A   Mostly Cloudy
2:58 PM 45.1 °F 40.8 °F 34.9 °F 67% 30.19 in 10.0 mi NE 8.1 mph - N/A   Overcast
3:58 PM 46.0 °F 41.9 °F 34.2 °F 63% 30.18 in 10.0 mi NE 8.1 mph - N/A   Mostly Cloudy
4:58 PM 45.9 °F 43.6 °F 34.9 °F 66% 30.15 in 10.0 mi ENE 4.6 mph - N/A   Overcast
5:58 PM 44.1 °F - 34.2 °F 68% 30.14 in 10.0 mi NNE 1.2 mph - N/A   Mostly Cloudy
6:58 PM 41.0 °F 37.1 °F 33.4 °F 74% 30.13 in 10.0 mi ENE 5.8 mph - N/A   Clear
7:58 PM 40.5 °F 37.3 °F 34.5 °F 79% 30.12 in 10.0 mi NE 4.6 mph - N/A   Clear
8:58 PM 38.8 °F 35.4 °F 34.7 °F 85% 30.10 in 10.0 mi ENE 4.6 mph - N/A   Clear
9:58 PM 34.9 °F 29.9 °F 32.7 °F 92% 30.09 in 10.0 mi NE 5.8 mph - N/A   Clear
10:23 PM 37.4 °F 31.4 °F 35.6 °F 93% 30.09 in 10.0 mi NE 8.1 mph - N/A   Mostly Cloudy
10:25 PM 37.4 °F 31.4 °F 35.6 °F 93% 30.09 in 9.0 mi NE 8.1 mph - N/A   Mostly Cloudy
10:33 PM 37.4 °F 30.3 °F 35.6 °F 93% 30.09 in 2.0 mi NNE 10.4 mph - N/A   Mostly Cloudy
10:38 PM 37.4 °F 31.4 °F 35.6 °F 93% 30.09 in 1.0 mi NE 8.1 mph - N/A   Mist
10:43 PM 37.4 °F 31.4 °F 35.6 °F 93% 30.08 in 0.8 mi NE 8.1 mph - N/A   Mist
10:58 PM 36.1 °F 31.4 °F 35.6 °F 98% 30.07 in 0.8 mi NE 5.8 mph - N/A   Mist
11:03 PM 35.6 °F 28.0 °F 35.6 °F 100% 30.08 in 0.8 mi NE 10.4 mph - N/A   Mist
11:08 PM 35.6 °F 28.0 °F 35.6 °F 100% 30.07 in 0.5 mi NE 10.4 mph - N/A Fog Fog
11:18 PM 35.6 °F 29.2 °F 35.6 °F 100% 30.07 in 0.5 mi NE 8.1 mph - N/A Fog Fog
11:28 PM 35.6 °F 28.0 °F 35.6 °F 100% 30.07 in 0.5 mi NE 10.4 mph - N/A Fog Fog
11:58 PM 36.1 °F 28.2 °F 36.0 °F 99% 30.05 in 0.5 mi NNE 11.5 mph - N/A Fog Fog